Location: Limoges
(45.8354°N, 1.2645°E)
Time: 10:08:59
(UTC+01:00)

Vanguard 1 - Visible Passes

Search period start: 25 February 2024 00:00
Search period end: 06 March 2024 00:00
Orbit: 653 x 3826 km, 34.3° (Epoch: 24 February)

Date Brightness Start Highest point End Pass type
(mag) Time Alt. Az. Time Alt. Az. Time Alt. Az.
25 Feb 13.4 00:48:44 10° W 01:33:15 - SE 00:56:09 29° WSW visible
25 Feb 13.7 03:45:57 15° S 03:45:57 15° S 03:48:27 10° S visible
25 Feb 12.6 20:26:55 10° SW 20:39:58 48° SSE 20:49:59 31° ESE visible
25 Feb 12.6 22:46:47 10° WSW 23:02:39 59° SSW 23:02:39 59° SSW visible
26 Feb 13.6 01:09:23 10° W 01:52:54 - SE 01:15:17 25° W visible
26 Feb 13.7 04:05:36 12° S 04:05:36 12° S 04:06:41 10° S visible
26 Feb 12.5 20:46:45 10° SW 21:00:11 52° SSE 21:09:05 36° ESE visible
26 Feb 12.7 23:07:08 10° WSW 23:21:44 56° SSW 23:21:44 56° SSW visible
27 Feb 13.7 01:30:08 10° W 02:12:31 - SE 01:34:23 20° W visible
27 Feb 12.7 18:48:57 10° SSW 18:58:46 33° SE 19:14:12 10° E visible
27 Feb 12.5 21:06:45 10° WSW 21:20:31 55° SSE 21:28:10 41° ESE visible
27 Feb 12.8 23:27:31 10° W 23:40:48 51° SW 23:40:48 51° SW visible
28 Feb 13.8 01:51:04 10° W 02:32:07 - SSE 01:53:27 15° W visible
28 Feb 12.6 19:08:20 10° SSW 19:18:36 39° SSE 19:34:32 11° E visible
28 Feb 12.5 21:26:51 10° WSW 21:40:56 57° S 21:47:11 46° SE visible
28 Feb 12.9 23:47:59 10° W 23:59:49 44° SW 23:59:49 44° SW visible
29 Feb 14.0 02:12:16 10° W 02:51:41 - SSE 02:12:28 10° W visible
29 Feb 12.4 19:27:57 10° SW 19:38:35 44° SSE 19:53:33 15° E visible
29 Feb 12.5 21:47:02 10° WSW 22:01:25 57° S 22:06:11 50° SE visible
01 Mar 13.1 00:08:33 10° W 00:18:49 38° WSW 00:18:49 38° WSW visible
01 Mar14.103:11:11SSE03:11:11SSE02:31:28Wvisible
01 Mar 12.4 19:47:46 10° SW 19:58:42 49° SSE 20:12:32 19° E visible
01 Mar 12.5 22:07:18 10° WSW 22:21:56 56° S 22:25:10 53° SSE visible
02 Mar 13.3 00:29:12 10° W 00:37:49 31° WSW 00:37:49 31° WSW visible
02 Mar 12.3 20:07:42 10° WSW 20:18:57 52° SSE 20:31:31 23° ESE visible
02 Mar 12.6 22:27:38 10° W 22:42:26 54° S 22:44:09 53° S visible
03 Mar 13.5 00:50:03 10° W 00:56:48 25° WSW 00:56:48 25° WSW visible
03 Mar 12.3 20:27:45 10° WSW 20:39:17 54° S 20:50:29 28° ESE visible
03 Mar 12.7 22:48:01 10° W 23:02:57 50° SSW 23:03:07 50° SSW visible
04 Mar 13.6 01:11:10 10° W 01:15:46 19° WSW 01:15:46 19° WSW visible
04 Mar 12.4 20:47:53 10° WSW 20:59:40 54° S 21:09:28 32° ESE visible
04 Mar 12.8 23:08:30 10° W 23:22:06 45° SSW 23:22:06 45° SSW visible
05 Mar 13.8 01:32:44 10° W 01:34:44 13° W 01:34:44 13° W visible
05 Mar 12.4 21:08:05 10° WSW 21:20:07 53° S 21:28:28 36° SE visible
